Regional Weather Roundup
Issued by NWS

Home | Current Version | Previous Version | Text Only | Print | Product List | Glossary On
Versions: 1 2 3 4 5 6 7 8 9 10 11 12 13 14 15 16 17 18 19 20 21 22 23 24 25 26 27 28 29 30 31 32 33 34 35 36 37 38 39 40 41 42 43 44 45 46 47 48 49 50
000
ASUS44 KLIX 271712
RWRLA
LOUISIANA WEATHER ROUNDUP
NATIONAL WEATHER SERVICE NEW ORLEANS LA
1200 PM CDT WED MAY 27 2015

NOTE: "FAIR" INDICATES FEW OR NO CLOUDS BELOW 12,000 FEET WITH NO
      SIGNIFICANT WEATHER AND/OR OBSTRUCTIONS TO VISIBILITY.
      SKY/WX - SKY CONDITION AND SIGNIFICANT WEATHER.
      TMP - AIR TEMPERATURE.    DP   - DEWPOINT TEMPERATURE.
      RH  - RELATIVE HUMIDITY.  PRES - PRESSURE.
      HX  - HEAT INDEX.         WCI  - WIND CHILL INDEX.

*  THESE STATIONS ARE NOT NWS OR FAA STATIONS AND ARE NOT UNDER
   NWS QUALITY CONTROL.

LAZ040-048-061>063-065-066-069-271800-
SOUTHEAST LOUISIANA

CITY           SKY/WX    TMP DP  RH WIND       PRES   REMARKS
N.O. AUDUBON     N/A     81  75  82 MISG        N/A
N.O. INTL ARPT CLOUDY    80  71  74 W22G40    30.17R THUNDER
N.O. LAKEFRONT CLOUDY    85  72  65 S8        30.16R
SLIDELL        CLOUDY    83  73  72 S7        30.15R
BATON ROUGE    LGT RAIN  68  65  90 CALM      30.15F
BOOTHVILLE     MOSUNNY   85  71  63 SE8       30.14F
BELLE CHASSE   CLOUDY    81  72  74 S10       30.15R THUNDER
BOGALUSA*        N/A     83  74  73 SW5       30.14F
GALLIANO*      CLOUDY    84  73  69 MISG      30.16R
NEW ROADS*     RAIN      67  66  97 S3        30.13F
GONZALES*      RAIN      67  67 100 NE3       30.19R
HAMMOND*       TSTM      70  64  83 NW9       30.22R
HOUMA*         SHOWER    68  64  88 NW21      30.21R
PORT FOURCHON* PTSUNNY   82  73  74 SE6       30.16R

$$

LAZ041-044-053-054-271800-
SOUTHWEST LOUISIANA

CITY           SKY/WX    TMP DP  RH WIND       PRES   REMARKS
LAKE CHARLES   CLOUDY    71  67  87 SE14      30.11F
LAFAYETTE      CLOUDY    69  66  90 S3        30.16F
PATTERSON      CLOUDY    66  64  94 N5        30.21F
SALT POINT       N/A     68  65  90 VRB3      30.20R
NEW IBERIA     LGT RAIN  70  67  90 NW7       30.17F
CHENAULT AIRPK CLOUDY    70  66  88 SE6       30.13F

$$

LAZ027-028-271800-
CENTRAL LOUISIANA

CITY           SKY/WX    TMP DP  RH WIND       PRES   REMARKS
FORT POLK      CLOUDY    76  67  75 SE9       30.12F
ALEXANDRIA INT CLOUDY    73  68  84 S5        30.11F
ALEXANDRIA     CLOUDY    73  67  81 SW10      30.13S

$$

LAZ001-002-271800-
NORTHWEST LOUISIANA

CITY           SKY/WX    TMP DP  RH WIND       PRES   REMARKS
SHREVEPORT     PTSUNNY   79  67  66 S5        30.11F
BARKSDALE AFB  PTSUNNY   77  67  72 VRB2      30.11S
DTN SHREVEPORT PTSUNNY   77  66  68 VRB5      30.12S

$$

LAZ014-016-271800-
NORTHEAST LOUISIANA

CITY           SKY/WX    TMP DP  RH WIND       PRES   REMARKS
MONROE         CLOUDY    73  70  90 NW10      30.14R
TALLULAH       CLOUDY    77  71  82 S6        30.12F

$$



USA.gov is the U.S. government's official web portal to all federal, state and local government web resources and services.